www.pogodaiklimat.ru
Время
(UTC), дата
11 8.07
10 8.07
12 8.07
13 8.07
14 8.07
15 8.07
17 8.07
16 8.07
18 8.07
19 8.07
20 8.07
21 8.07
23 8.07
22 8.07
00 9.07
01 9.07
02 9.07
03 9.07
05 9.07
04 9.07
06 9.07
07 9.07
08 9.07
09 9.07
11 9.07
10 9.07
12 9.07
13 9.07
14 9.07
15 9.07
17 9.07
16 9.07
18 9.07
19 9.07
20 9.07
21 9.07
23 9.07
22 9.07
00 10.07
01 10.07
02 10.07
03 10.07
05 10.07
04 10.07
06 10.07
07 10.07
08 10.07
09 10.07
11 10.07
10 10.07
12 10.07
13 10.07
14 10.07
15 10.07
17 10.07
16 10.07
18 10.07
19 10.07
20 10.07
21 10.07
23 10.07
22 10.07
00 11.07
01 11.07
02 11.07
03 11.07
05 11.07
04 11.07
06 11.07
07 11.07
08 11.07
09 11.07
11 11.07
10 11.07
12 11.07
13 11.07
14 11.07
15 11.07
17 11.07
16 11.07
18 11.07
19 11.07
20 11.07
21 11.07
23 11.07
22 11.07
00 12.07
01 12.07
02 12.07
03 12.07
05 12.07
04 12.07
06 12.07
07 12.07
08 12.07
09 12.07
11 12.07
10 12.07
12 12.07
13 12.07
14 12.07
15 12.07
17 12.07
16 12.07
18 12.07
19 12.07
20 12.07
21 12.07
23 12.07
22 12.07
00 13.07
01 13.07
02 13.07
03 13.07
05 13.07
04 13.07
06 13.07
07 13.07
08 13.07
09 13.07
11 13.07
10 13.07
12 13.07
13 13.07
14 13.07
15 13.07
17 13.07
16 13.07
18 13.07
19 13.07
20 13.07
21 13.07
23 13.07
22 13.07
00 14.07
01 14.07
02 14.07
03 14.07
05 14.07
04 14.07
06 14.07
07 14.07
08 14.07
09 14.07
11 14.07
10 14.07
12 14.07
13 14.07
14 14.07
15 14.07
17 14.07
16 14.07
18 14.07
19 14.07
20 14.07
21 14.07
23 14.07
22 14.07
00 15.07
01 15.07
02 15.07
03 15.07
05 15.07
04 15.07
06 15.07
07 15.07
08 15.07
09 15.07
Ветер
(напр.,м/с)
Видим. Явления Облачность Т
(С)
Тd
(С)
f
(%)
Тe
(С)
Тes
(С)
Комфортность P
(гПа)
Po
(гПа)
Тmin
(С)
Tmax
(С)
R
(мм)
R24
(мм)
S
(см)
ЮЗ 4
{6}
15 км в посл. час дождь 9/9 270 м
[Sc]
+15.3 +14.3 94 +14 +15 тепло 1016.2 1009.6
ЮЗ 4
{7}
9000 м дождь {снег} 9/9 180 м
[Frnb]
+14.5 +13.7 95 +13 +14 тепло 1016.2 1009.6
ЮЗ 4
{7}
9000 м в посл. час зёрна {дождь} 9/9 180 м
[St]
+16.5 +15.5 94 +16 +17 тепло 1016.2 1009.7 3
ЮЗ 4
{6}
25 км 9/9 270 м
[St]
+17.5 +15.9 90 +17 +18 тепло 1016.3 1009.8
З 4
{6}
25 км 10/9 360 м
[Sc]
+17.7 +15.6 88 +17 +18 тепло 1016.3 1009.8
З 4
{7}
4500 м слаб. дождь 10/9 180 м
[Frnb]
+17.3 +16.3 94 +17 +17 тепло 1016.6 1010.1
З 3
{6}
10 км слаб. дождь 10/9 270 м
[Sc]
+16.5 +15.9 96 +16 +16 тепло 1016.3 1009.7
З 3
{7}
4000 м дождь 10/9 120 м
[Frnb]
+16.4 +15.7 96 +16 +16 тепло 1016.5 1009.9
З 3
{7}
9000 м в посл. час дождь 9/9 180 м
[St]
+16.5 +15.9 96 +16 +16 тепло 1016.4 1009.8 +17.8 7
ЮЗ 3
{5}
4500 м дождь 9/9 150 м
[Sc diur, vesp]
+16.4 +16.0 97 +16 +16 тепло 1016.3 1009.8
ЮЗ 3
{7}
9000 м в посл. час дождь 9/9 210 м
[St]
+16.2 +15.7 97 +16 +16 тепло 1016.2 1009.7
З 3
{7}
10 км в посл. час зёрна {дождь} 9/9 210 м
[Sc]
+16.3 +15.8 97 +16 +16 тепло 1016.4 1009.9
З 3
{6}
14 км 9/9 210 м
[Sc]
+16.3 +15.6 96 +16 +16 тепло 1015.9 1009.4
ЮЗ 4
{6}
14 км в посл. час дождь 9/9 210 м
[Sc]
+16.3 +15.7 96 +16 +16 тепло 1016.3 1009.7
ЮЗ 4
{7}
14 км {дождь, снег} 9/9 210 м
[Sc]
+16.3 +15.7 96 +16 +16 тепло 1015.6 1009.1 0.4
ЮЗ 5
{8}
14 км 10/10 240 м
[St]
+16.4 +15.4 94 +15 +15 тепло 1015.5 1008.9
ЮЗ 5
{8}
14 км 10/10 210 м
[St]
+16.4 +15.4 94 +15 +15 тепло 1015.1 1008.6
ЮЗ 5
{8}
14 км в посл. час дождь 9/9 240 м
[Sc]
+16.3 +15.6 96 +15 +15 тепло 1015.0 1008.5
ЮЗ 5
{10}
14 км в посл. час дождь 10/10 300 м
[Sc]
+16.3 +15.4 94 +15 +15 тепло 1014.6 1008.1
ЮЗ 6
{10}
14 км в посл. час дождь 9/9 240 м
[Sc]
+16.2 +15.6 96 +15 +15 тепло 1014.9 1008.4
ЮЗ 6
{10}
14 км {дождь, снег} 9/9 300 м
[St]
+16.6 +15.0 90 +15 +16 тепло 1014.5 1008.0 +16.1 0.7
ЮЗ 6
{9}
14 км в посл. час ливневой дождь 9/9 270 м
[Cu Sc]
+16.8 +15.3 91 +16 +16 тепло 1014.7 1008.2
ЮЗ 5
{9}
20 км 9/9 420 м
[Sc]
+17.8 +15.8 88 +17 +18 тепло 1014.5 1008.1
ЮЗ 5
{10}
20 км {ливн. дождь} 8/5 720 м
[Cu Sc Ac trans]
+19.2 +16.0 82 +21 +23 комфорт 1014.4 1008.0
З 6
{12}
20 км 6/6 870 м
[Cu Sc Ac trans Ci fib]
+20.7 +14.5 68 +23 +26 комфорт 1014.3 1007.9
З 7
{12}
20 км 8/6 800 м
[Cu Sc Ac trans]
+20.3 +15.0 72 +23 +24 комфорт 1014.4 1008.0
ЮЗ 7
{12}
20 км 8/8 1140 м
[Sc diur, vesp]
+21.0 +14.4 66 +24 +25 комфорт 1014.2 1007.8
ЮЗ 6
{11}
20 км 9/9 960 м
[Sc]
+20.6 +14.7 69 +23 +24 комфорт 1014.3 1007.8
З 6
{11}
20 км 9/9 1020 м
[Sc]
+21.1 +14.3 65 +24 +24 комфорт 1014.0 1007.6
З 4
{11}
20 км 9/9 1200 м
[Cu Sc]
+21.9 +14.8 64 +25 +26 комфорт 1013.2 1006.8
З 6
{9}
20 км 5/5 1380 м
[Cu Sc Ac trans Ci fib]
+23.2 +13.9 56 +27 +27 душно 1012.4 1006.1
З 4
{8}
20 км 6/6 1200 м
[Cu Sc Ac trans]
+22.9 +15.0 61 +27 +29 душно 1012.9 1006.5
З 4
{11}
20 км 5/3 2000 м
[Sc Ac trans Ci fib]
+23.1 +14.0 57 +27 +27 душно 1012.0 1005.6 +23.5
СЗ 3
{6}
20 км 6/3 2000 м
[Sc Ac trans Cs]
+21.2 +15.1 68 +24 +24 комфорт 1012.0 1005.6
СЗ 2
{5}
20 км 8/1 1350 м
[Sc Ac trans Cs]
+19.5 +15.0 75 +22 +22 комфорт 1012.0 1005.5
Ю 1
{6}
20 км 8/1 1350 м
[Sc Ac trans Cs]
+16.9 +15.0 89 +18 +18 тепло 1011.8 1005.3
ЮЗ 4
{8}
20 км 9/4 1200 м
[Sc Ac trans]
+18.2 +14.3 78 +18 +18 тепло 1011.5 1005.0
З 3
{7}
20 км 9/1 1050 м
[Sc Ac trans Cs]
+18.8 +14.6 77 +20 +20 тепло 1011.8 1005.3
ЮЗ 5
{8}
20 км 9/8 1200 м
[Sc Ac trans]
+18.0 +14.0 77 +18 +18 тепло 1011.1 1004.6
ЮЗ 4
{8}
20 км 9/8 1200 м
[Sc Ac trans]
+17.3 +13.9 80 +17 +17 тепло 1010.5 1004.1
З 5
{8}
20 км 9/9 500 м
[Sc]
+17.0 +13.9 82 +16 +16 тепло 1010.4 1003.9
ЮЗ 5
{10}
20 км 9/9 420 м
[Sc]
+16.7 +13.9 84 +16 +16 по сезону 1009.9 1003.5
З 5
{8}
20 км 9/9 330 м
[Sc]
+16.2 +14.1 87 +15 +15 по сезону 1010.0 1003.5
ЮЗ 5
{9}
20 км 9/9 420 м
[Sc]
+16.5 +13.8 84 +16 +16 тепло 1009.7 1003.2
З 5
{10}
10 км слаб. морось 9/9 210 м
[Frnb]
+15.9 +14.8 93 +15 +15 по сезону 1010.3 1003.8 +15.8 0.0
З 7
{10}
25 км в посл. час морось 9/9 420 м
[Sc]
+16.4 +14.4 88 +15 +15 по сезону 1011.0 1004.5
СЗ 5
{10}
25 км в посл. час морось 9/9 400 м
[Sc]
+16.6 +14.1 85 +16 +16 тепло 1012.0 1005.5
СЗ 6
{10}
20 км в посл. час дождь {ливн. дождь} 8/8 480 м
[Cu Sc Ac trans Ci fib]
+16.0 +12.8 81 +15 +16 прохладно 1013.1 1006.6
СЗ 6
{9}
25 км в посл. час ливневой дождь 6/6 600 м
[Cu Sc Ac cuf Ci fib]
+18.7 +13.1 70 +19 +22 тепло 1014.9 1008.4
СЗ 6
{9}
25 км в посл. час ливневой дождь 6/6 480 м
[Cu Sc Ac trans Ci fib]
+17.4 +13.7 79 +17 +19 по сезону 1014.2 1007.7
СЗ 8
{11}
25 км слаб. ливневой дождь 8/5 600 м
[Cu Sc Ac cuf Ci fib]
+16.5 +12.3 76 +15 +16 холодно 1015.9 1009.4 0.2
СЗ 6
{11}
25 км в посл. час ливневой дождь 8/5 750 м
[Cu med, cong Ac cuf Ci fib]
+17.6 +11.8 69 +17 +19 прохладно 1016.8 1010.3
С 5
{11}
35 км 8/5 750 м
[Cu med, cong Ac cuf Ci fib]
+17.4 +11.8 70 +17 +19 прохладно 1017.4 1010.9
С 5
{11}
35 км {ливн. дождь} 6/5 900 м
[Cu med, cong Ac cuf]
+17.0 +10.4 65 +16 +19 холодно 1017.9 1011.4
СЗ 6
{8}
35 км 5/5 1500 м
[Sc diur, vesp Ac cuf]
+17.8 +8.3 54 +17 +18 прохладно 1018.6 1012.1
С 4
{8}
35 км 5/5 1140 м
[Cu med, cong Ac cuf]
+17.7 +8.7 56 +17 +20 прохладно 1018.2 1011.7
СЗ 6
{11}
35 км {ливн. дождь} 4/4 1350 м
[Sc diur, vesp Ac cuf]
+17.2 +8.0 55 +16 +17 прохладно 1019.2 1012.6 +19.5 0.1
СЗ 4
{8}
35 км 3/3 1350 м
[Cu hum]
+16.4 +7.4 55 +16 +16 холодно 1019.6 1013.0
СЗ 3
{6}
35 км 4/0
[Ac und]
+14.3 +8.4 68 +13 +13 очень
холодно
1020.1 1013.5
СЗ 3
{8}
35 км 1/0
[Ac trans]
+13.0 +8.8 76 +12 +12 холодно 1020.8 1014.2
СЗ 2
{3}
35 км 3/0
[Ac trans]
+12.3 +9.5 83 +11 +11 холодно 1021.8 1015.1
СЗ 2
{3}
35 км 1/0
[Ac trans]
+11.8 +8.7 81 +11 +11 холодно 1021.3 1014.6
СЗ 1
{8}
35 км 5/0
[Ac und]
+12.6 +9.7 82 +13 +13 по сезону 1022.3 1015.6
штиль 0
{2}
35 км 3/0
[Ac trans]
+11.2 +9.2 87 +11 +11 по сезону 1022.5 1015.8
Ю 1
{1}
35 км 1/0
[Ac trans]
+9.7 +8.9 95 +9 +9 прохладно 1022.6 1015.8
Ю 1
{2}
35 км 1/0
[Ac trans]
+9.0 +8.2 95 +8 +8 холодно 1022.9 1016.1
Ю 2
{3}
35 км 1/0
[Ci fib]
+10.1 +9.2 94 +8 +9 холодно 1023.6 1016.9
ЮЗ 2
{2}
35 км 1/0
[Ci fib]
+8.9 +8.1 95 +7 +7 холодно 1023.3 1016.5
ЮЗ 1
{3}
35 км 3/0
[Ac trans]
+13.1 +10.9 86 +13 +16 по сезону 1024.0 1017.3 +8.8
ЮЗ 2
{3}
35 км 4/1 300 м
[Cu hum Ac trans Ci fib]
+14.8 +11.0 78 +15 +18 по сезону 1024.6 1017.9
нст 1
{3}
35 км 5/4 750 м
[Cu med, cong Ac trans Ci fib]
+16.2 +10.4 68 +17 +23 тепло 1024.8 1018.2
З 2
{5}
35 км 5/5 900 м
[Cu med, cong Ac trans Ci fib]
+17.3 +9.7 61 +18 +24 по сезону 1025.0 1018.5
З 2
{6}
35 км 5/4 1140 м
[Cu med, cong Ac cuf Ci fib]
+18.5 +8.8 53 +19 +28 тепло 1025.2 1018.7
З 3
{5}
35 км 6/5 900 м
[Cu med, cong Ac cuf Ci fib]
+16.7 +9.2 61 +17 +22 по сезону 1025.4 1018.8
З 3
{7}
35 км 5/4 1260 м
[Cu med, cong Ac cuf Ci fib]
+19.5 +8.7 50 +21 +28 комфорт 1025.4 1018.9
СЗ 4
{8}
35 км 6/4 1350 м
[Cu med, cong Ac cuf Ci fib]
+18.8 +8.6 51 +19 +25 прохладно 1025.6 1019.1
СЗ 4
{8}
35 км 6/5 1350 м
[Cu med, cong Ac cuf Ci fib]
+18.5 +10.0 58 +19 +23 прохладно 1025.7 1019.1
С 4
{9}
35 км 5/5 1350 м
[Cu med, cong Ac cuf Ci fib]
+18.1 +9.9 59 +18 +21 прохладно 1025.9 1019.3
С 4
{8}
35 км 5/5 1350 м
[Sc diur, vesp Ci fib]
+17.8 +9.3 57 +18 +19 прохладно 1026.3 1019.7
С 5
{10}
35 км 5/5 1410 м
[Cu med, cong Ac cuf Ci fib]
+18.6 +9.5 55 +19 +20 прохладно 1026.2 1019.6
С 5
{10}
35 км 1/1 1260 м
[Sc diur, vesp Ci fib]
+17.9 +8.3 53 +18 +18 по сезону 1026.5 1020.0 +20.3
С 4
{7}
35 км 1/1 1260 м
[Sc diur, vesp]
+16.8 +8.2 57 +16 +16 прохладно 1026.8 1020.2
СЗ 2
{5}
35 км ясно +14.6 +9.2 70 +14 +14 холодно 1027.1 1020.5
СЗ 2
{7}
35 км ясно +13.8 +9.8 77 +13 +13 прохладно 1027.6 1021.0
СЗ 2
{3}
35 км ясно +11.9 +10.0 88 +11 +11 холодно 1028.0 1021.3
СЗ 1
{4}
35 км ясно +12.6 +10.0 84 +13 +13 прохладно 1027.9 1021.2
штиль 0
{7}
35 км ясно +11.1 +9.7 91 +10 +10 прохладно 1028.0 1021.2
СЗ 1
{2}
35 км 3/0
[Ci fib]
+10.5 +9.4 93 +10 +10 прохладно 1028.0 1021.2
штиль 0
{1}
35 км 3/0
[Ci fib]
+10.1 +9.3 95 +9 +9 прохладно 1027.9 1021.2
СЗ 1
{2}
35 км 1/1 1200 м
[Sc Ci fib]
+10.0 +9.0 93 +9 +9 холодно 1027.9 1021.2
штиль 0
{1}
15 км 1/1 1500 м
[Sc]
+10.2 +9.6 96 +9 +10 прохладно 1028.3 1021.6
штиль 0
{1}
15 км 1/1 1200 м
[Sc]
+8.4 +7.9 97 +7 +7 холодно 1028.1 1021.3
С 1
{2}
20 км 1/1 1350 м
[Sc]
+11.8 +10.5 92 +12 +14 прохладно 1028.8 1022.1 +8.0
СВ 2
{3}
20 км 1/1 300 м
[Cu hum]
+13.7 +11.1 84 +13 +18 по сезону 1029.3 1022.6
В 2
{4}
20 км 4/4 600 м
[Cu hum]
+15.6 +10.7 73 +16 +21 тепло 1029.5 1022.9
СВ 2
{4}
25 км 4/4 840 м
[Cu hum]
+17.0 +9.3 60 +17 +24 по сезону 1029.4 1022.7
СВ 3
{5}
30 км 4/4 1320 м
[Cu hum]
+18.1 +7.4 50 +18 +27 по сезону 1029.3 1022.7
С 3
{4}
30 км 4/4 1110 м
[Cu hum]
+17.5 +8.8 57 +18 +25 по сезону 1029.3 1022.7
СВ 2
{7}
30 км 4/4 1500 м
[Cu hum Ci]
+19.7 +8.0 47 +21 +31 комфорт 1028.8 1022.2
СВ 3
{7}
30 км 5/4 1500 м
[Sc diur, vesp Ci]
+19.8 +7.3 44 +21 +28 комфорт 1028.5 1021.9
нст 2
{7}
30 км 6/4 1500 м
[Sc diur, vesp Ci]
+20.4 +7.3 43 +22 +29 комфорт 1028.2 1021.7
СВ 2
{7}
30 км 8/4 1500 м
[Sc diur, vesp Ci]
+20.6 +6.9 41 +22 +27 комфорт 1027.9 1021.4
СВ 4
{7}
30 км 9/1 1500 м
[Sc diur, vesp Ci fib]
+20.7 +7.4 42 +22 +24 комфорт 1027.2 1020.6
СВ 2
{7}
30 км 8/3 1500 м
[Sc diur, vesp Ci]
+21.1 +8.5 44 +22 +26 комфорт 1027.5 1021.0
СВ 3
{7}
30 км 8/1 1500 м
[Sc diur, vesp Ci fib]
+20.3 +8.0 45 +22 +23 комфорт 1026.8 1020.2 +21.2
СВ 3
{6}
30 км 9/0
[Ci fib]
+18.6 +9.2 54 +19 +19 по сезону 1026.6 1020.1
С 1
{5}
30 км 9/0
[Ci fib]
+15.8 +10.4 70 +17 +17 прохладно 1026.7 1020.1
С 1
{6}
30 км 8/0
[Ci fib]
+14.7 +9.9 73 +15 +15 по сезону 1026.9 1020.3
В 1
{3}
30 км 8/0
[Ci fib]
+14.2 +9.3 72 +15 +15 по сезону 1026.6 1019.9
СВ 1
{4}
30 км 8/0
[Ci fib]
+15.0 +9.3 69 +16 +16 по сезону 1026.7 1020.0
СЗ 1
{6}
30 км 8/0
[Ci fib]
+12.7 +9.2 79 +13 +13 по сезону 1026.6 1019.9
С 1
{1}
30 км 6/0
[Ci fib]
+11.7 +8.8 82 +12 +12 по сезону 1026.6 1019.9
штиль 0
{1}
30 км 6/0
[Ci fib]
+10.9 +8.8 87 +10 +10 по сезону 1026.2 1019.5
штиль 0
{1}
30 км 4/0
[Ci fib]
+11.0 +8.7 86 +10 +10 прохладно 1025.6 1018.9
штиль 0
{1}
30 км 1/0
[Ci fib]
+10.5 +9.6 94 +10 +11 прохладно 1025.4 1018.6
штиль 0
{1}
30 км 3/0
[Ci fib]
+9.7 +8.3 91 +9 +9 прохладно 1025.4 1018.6
В 1
{2}
30 км 4/0
[Ci fib]
+13.8 +10.9 83 +14 +17 по сезону 1025.5 1018.8 +9.6
СВ 1
{2}
30 км 5/0
[Ci fib]
+15.3 +10.4 73 +16 +21 тепло 1025.4 1018.7
СВ 2
{3}
30 км 5/0
[Ci fib]
+17.6 +10.1 61 +18 +26 тепло 1025.2 1018.6
СВ 2
{3}
30 км 5/1 1320 м
[Cu hum Ci fib]
+19.7 +8.6 49 +21 +31 комфорт 1024.9 1018.3
нст 1
{6}
30 км 6/1 1440 м
[Cu hum Ci fib]
+22.6 +9.1 42 +24 +40 комфорт 1024.1 1017.6
СВ 1
{6}
30 км 5/1 1410 м
[Cu hum Ci fib]
+20.9 +7.7 43 +23 +37 комфорт 1024.6 1018.1
нст 1
{6}
30 км 5/1 1500 м
[Cu hum Ci fib]
+22.5 +9.2 43 +24 +40 комфорт 1023.5 1017.0
С 2
{5}
30 км 5/1 1500 м
[Cu hum Ci fib]
+23.0 +8.4 39 +24 +37 комфорт 1022.8 1016.3
нст 1
{5}
30 км 4/1 1500 м
[Cu hum Ci fib]
+24.0 +8.5 37 +25 +37 комфорт 1022.2 1015.8
З 3
{6}
30 км 5/1 1500 м
[Sc diur, vesp Ci fib]
+23.9 +8.4 37 +24 +31 комфорт 1021.6 1015.2
СЗ 4
{7}
30 км 3/1 1500 м
[Sc diur, vesp Ac trans Cc]
+22.6 +8.5 40 +24 +26 комфорт 1020.7 1014.3
СЗ 2
{7}
30 км 4/1 1500 м
[Sc diur, vesp Ac trans Ci fib]
+23.8 +8.1 37 +24 +29 комфорт 1021.1 1014.7
СЗ 4
{7}
35 км 4/0
[Ac trans Ci]
+22.5 +8.1 40 +24 +24 комфорт 1020.5 1014.0 +24.6
С 3
{7}
35 км 4/0
[Ac trans Ci]
+20.9 +7.0 41 +22 +23 комфорт 1020.3 1013.8
С 2
{5}
35 км 4/0
[Ac trans Cs]
+18.4 +7.9 50 +19 +19 по сезону 1020.2 1013.7
С 1
{7}
35 км 4/0
[Ac trans Cs]
+17.6 +7.5 52 +19 +19 тепло 1020.1 1013.6
Ю 1
{2}
35 км 5/0
[Ac As Cs]
+13.7 +10.0 78 +14 +14 прохладно 1019.3 1012.7
Ю 1
{1}
35 км 5/0
[Cs]
+14.5 +10.4 76 +15 +15 по сезону 1019.6 1013.0
Ю 3
{7}
35 км 6/0
[Ac As Cs]
+13.6 +9.7 77 +12 +12 по сезону 1019.1 1012.5
З 1
{3}
35 км 9/0 2000 м
[Ac As Cs]
+14.2 +10.3 77 +15 +15 тепло 1018.8 1012.1
З 2
{3}
35 км 9/0 2000 м
[Ac As]
+13.4 +10.5 83 +13 +13 по сезону 1018.1 1011.5
Ю 2
{3}
35 км 9/0
[Ac As]
+14.1 +11.1 82 +14 +14 по сезону 1017.5 1010.9
ЮЗ 3
{3}
35 км 9/0
[Ac As Ci fib]
+14.1 +9.6 74 +13 +13 по сезону 1017.1 1010.5
Ю 2
{3}
35 км 9/0
[Ac As Ci fib]
+14.2 +10.5 78 +14 +14 по сезону 1017.1 1010.5
З 3
{5}
35 км 9/0 2000 м
[Ac As]
+15.8 +9.4 66 +15 +16 по сезону 1016.8 1010.2 +13.2
З 3
{5}
35 км 9/0
[Ac As]
+16.2 +11.0 71 +16 +17 тепло 1016.9 1010.2
ЮЗ 2
{5}
35 км слаб. дождь 9/0 2000 м
[Ac As]
+17.4 +11.3 67 +18 +21 тепло 1016.4 1009.9
ЮЗ 3
{6}
9000 м слаб. ливневой дождь 9/9 660 м
[Cu Sc]
+15.6 +12.4 81 +15 +16 прохладно 1016.6 1010.0
ЮЗ 2
{4}
20 км в посл. час дождь 10/9 540 м
[Sc]
+17.4 +14.6 84 +18 +19 по сезону 1015.9 1009.4
ЮЗ 2
{5}
11 км слаб. дождь 10/9 720 м
[Cu Sc]
+15.9 +13.7 87 +16 +17 прохладно 1016.4 1009.8
З 2
{6}
7000 м дождь {ливн. дождь} 10/9 210 м
[Sc]
+16.5 +14.7 89 +17 +17 прохладно 1015.6 1009.0 3
З 2
{4}
4000 м морось {снег} 10/9 90 м
[Frnb]
+16.4 +15.6 95 +16 +17 холодно 1015.3 1008.8
ЮЗ 4
{6}
4000 м дождь 10/9 90 м
[Frnb]
+16.8 +15.9 94 +16 +17 холодно 1014.9 1008.4
ЮЗ 3
{6}
10 км в посл. час дождь 9/9 300 м
[Sc]
+18.0 +16.6 92 +18 +19 прохладно 1014.4 1007.9
СЗ 4
{6}
10 км 10/9 330 м
[Sc]
+16.4 +14.6 89 +16 +16 холодно 1014.7 1008.2
СЗ 4
{10}
10 км 10/9 240 м
[St]
+16.8 +15.3 91 +16 +16 холодно 1014.6 1008.1
СЗ 3
{10}
20 км {дождь, снег} 9/9 400 м
[Cu Sc]
+16.3 +14.5 89 +16 +16 прохладно 1014.9 1008.3 +18.1 4
С 3
{4}
17 км дождь {снег} 9/9 450 м
[Cu Sc]
+15.5 +14.3 93 +15 +15 холодно 1015.0 1008.4
СЗ 2
{4}
20 км в посл. час дождь 9/9 1500 м
[Cu Sc]
+15.4 +13.5 88 +15 +15 холодно 1015.1 1008.5
СЗ 1
{4}
30 км 9/8 1500 м
[Sc Ac As]
+15.0 +13.1 88 +15 +15 прохладно 1015.2 1008.6
СЗ 2
{4}
30 км 9/3 450 м
[Sc Ac As]
+14.4 +13.3 93 +14 +14 прохладно 1015.3 1008.7
СЗ 3
{4}
30 км 9/0 2000 м
[Ac As]
+15.2 +13.4 89 +14 +14 прохладно 1015.2 1008.7
С 1
{4}
30 км {дождь, снег} 9/3 450 м
[Sc Ac trans Ci fib]
+13.8 +12.9 94 +14 +14 по сезону 1015.6 1009.0
штиль 0
{2}
30 км 9/0
[Ac trans Ci fib]
+13.7 +12.0 89 +13 +13 по сезону 1015.2 1008.6
З 1
{1}
20 км 9/0
[Ac trans Ci fib]
+13.5 +11.9 90 +14 +14 тепло 1014.9 1008.3
З 1
{2}
20 км 9/0
[Ac As Ci fib]
+13.4 +12.3 93 +14 +14 по сезону 1014.8 1008.2
С 1
{1}
20 км 8/4 1410 м
[Sc Ac As Ci fib]
+14.5 +12.9 90 +15 +15 по сезону 1014.9 1008.3
З 1
{1}
18 км 9/4 1500 м
[Sc Ac As Ci fib]
+13.2 +12.5 96 +13 +13 по сезону 1014.7 1008.1
СВ 1
{2}
50 км 9/9 1500 м
[Sc Ac trans Ci fib]
+14.5 +11.5 82 +15 +15 по сезону 1015.2 1008.6 +12.9 0.0
СВ 1
{2}
50 км 9/9 1500 м
[Sc diur, vesp]
+14.9 +11.0 77 +15 +16 по сезону 1015.4 1008.8
В 1
{2}
50 км 5/4 600 м
[Cu Sc Ac trans Ci fib]
+16.3 +11.4 73 +17 +23 тепло 1015.4 1008.9
СВ 1
{2}
50 км 8/3 900 м
[Cu Sc Ac trans Ci fib]
+17.5 +10.0 61 +19 +25 тепло 1015.8 1009.3
Местоположение метеостанции Брюссель (Бельгия): широта 50.90 долгота 4.53 высота над уровнем моря 58 м.
В архиве по умолчанию представлена погода в Брюсселе за последнюю неделю. Архивные данные за месяц целиком и за предыдущие месяцы, начиная с января 2011 года, Вы можете получить, выбрав интересующий диапазон дат из раскрывающегося списка и нажав кнопку "Найти!".
*Определитесь, кто Вы:
Внимание! Время в таблицах - всемирное. Для получения местного времени необходимо прибавить поправку, которая равна 1 ч.
Смотрите также архив погоды в соседних городах и на ближайших метеорологических станциях:
Партнеры нашего сайта:      
Пояснения к столбцам:
  • Ветер - указаны скорость ветра в м/с - средняя за 10 мин, порывы в срок и между сроками (в фигурных скобках) и направление, откуда дует ветер: С - северный,
  • СВ - северо-восточный, В - восточный, ЮВ - юго-восточный, Ю - южный, ЮЗ - юго-западный, З - западный, СЗ - северо-западный.
  • Видимость - горизонтальная дальность видимости в метрах или километрах. При видимости от 1 до 10 км при отсутствии осадков обычно наблюдается дымка, при ухудшении видимости до 1 км и менее - туман. В сухую погоду видимость может ухудшаться дымом, пылью или мглою.
  • Явления - указаны атмосферные явления, наблюдавшиеся в срок или в последний час перед сроком; фигурными скобками обозначены явления, наблюдавшиеся между сроками (за 1-3 часа до срока); квадратными скобками обозначены град или гололедные отложения с указанием их диаметра в мм.
  • Облачность - указаны через наклонную черту общая и нижняя облачность в баллах и высота нижней границы облаков в метрах; квадратными скобками обозначены формы облаков: Ci - перистые, Cs - перисто-слоистые, Cc - перисто-кучевые, Ac - высококучевые, As - высокослоистые, Sc - слоисто-кучевые, Ns - слоисто-дождевые, Cu - кучевые, Cb - кучево-дождевые. Подробнее классификацию облаков см. в Атласе облаков (PDF).
  • T - Температура воздуха - температура, измеренная на высоте 2 м над землей.
  • Td - Температура точки росы - температура, при понижении до которой содержащийся в воздухе водяной пар достигнет насыщения.
  • f - Относительная влажность воздуха - влажноcть воздуха, измеренная на высоте 2 м над землей.
  • Te - Эффективная температура - температура, которую ощущает одетый по сезону человек в тени. Характеристика душности погоды. При расчете учитывается влияние влажности воздуха и скорости ветра на теплоощущения человека.
  • Tes - Эффективная температура на солнце - температура, которую ощущает человек, с поправкой на солнечный нагрев. Характеристика знойности погоды. Зависит от высоты солнца над горизонтом, облачности и скорости ветра. Ночью, в пасмурную погоду, а также при ветре 12 м/с и более поправка равна нулю.
  • P - Атмосферное давление - приведенное к уровню моря атмосферное давление.
  • Po - Атмосферное давление - измеренное на уровне метеостанции атмосферное давление.
  • Tmin - Минимальная температура - минимум температуры воздуха на высоте 2 м над землей.
  • Tmax - Максимальная температура - максимум температуры воздуха на высоте 2 м над землей.
  • R - Количество осадков - Количество выпавших осадков за период времени, мм. При наведении курсора мыши на число - период времени, за который выпало указанное количество осадков.
  • R24 - Количество осадков - Количество выпавших осадков за 24 часа, мм.
  • S - Снежный покров - Высота снежного покрова, см. При наведении курсора мыши на число - состояние снежного покрова и степень покрытия местности в баллах.